This demonstration page uses our WeatherBlox Daily Observations layout. Learn more.

Left ArrowRight Arrow

39.08367, -84.50855

Hourly Observations for May 18, 2019

Temp ( °F °C ) Dew Point ( °F °C ) Humidity (%) Winds ( mph kmh ) Pressure ( in mb ) Visibility ( mi km ) Precip ( " mm )
12:14 am 00:14 Mostly Cloudy with Mist and Fog 65 18.3 64 17.8 97 97 N N/A 29.92 1013 1 2 N/A
12:17 am 00:17 Mostly Clear with Mist and Fog 65 18.3 64 17.8 97 97 N N/A 29.92 1013 3 4 N/A
12:24 am 00:24 Mostly Cloudy with Mist and Fog 65 18.3 64 17.8 97 97 N N/A 29.92 1013 1 2 N/A
12:29 am 00:29 Mostly Cloudy with Fog 64 17.8 64 17.8 100 100 N N/A 29.92 1013 0 0 N/A
12:45 am 00:45 Mostly Cloudy with Fog 64 17.8 63 17.2 96 96 N N/A 29.92 1013 0 0 N/A
12:50 am 00:50 Mostly Cloudy with Mist and Fog 64 18 63 17 94 94 N N/A 29.92 1013 1 2 N/A
12:53 am 00:53 Cloudy with Mist and Fog 64 17.8 63 17.2 96 96 N N/A 29.92 1013 4 6 N/A
1:01 am 01:01 Cloudy with Mist and Fog 64 17.8 64 17.8 100 100 S 5 7 29.92 1013 2 3 N/A
1:11 am 01:11 Cloudy with Fog 64 17.8 64 17.8 100 100 SW 5 7 29.93 1014 1 1 N/A
1:23 am 01:23 Partly Cloudy with Mist and Fog 64 17.8 64 17.8 100 100 WSW 3 6 29.93 1014 1 2 N/A
1:35 am 01:35 Mostly Clear with Mist and Fog 64 17.8 64 17.8 100 100 WSW 3 6 29.92 1013 3 4 N/A
1:47 am 01:47 Mostly Cloudy with Mist and Fog 63 17 63 17 100 100 SSW 3 6 29.92 1013 1 1 N/A
1:53 am 01:53 Mostly Cloudy with Fog 64 17.8 63 17.2 96 96 SSW 3 6 29.91 1013 0 0 N/A
2:00 am 02:00 Mostly Cloudy with Fog 64 17.8 63 17.2 96 96 SSW 3 6 29.91 1013 0 0 N/A
2:34 am 02:34 Mostly Cloudy with Fog 62 16.7 62 16.7 100 100 SSW 3 6 29.91 1013 0 0 N/A
2:49 am 02:49 Mostly Cloudy with Fog 63 17 63 17 100 100 SSW 3 6 29.91 1013 0 0 N/A
2:53 am 02:53 Mostly Cloudy with Fog 63 17.2 62 16.7 97 97 SSW 5 7 29.90 1013 0 0 N/A
3:53 am 03:53 Mostly Cloudy with Fog 63 17.2 62 16.7 97 97 N N/A 29.91 1013 0 0 N/A
4:53 am 04:53 Mostly Cloudy with Fog 62 16.7 61 16.1 96 96 N N/A 29.92 1013 0 0 N/A
5:06 am 05:06 Mostly Cloudy with Mist and Fog 61 16.1 61 16.1 100 100 N N/A 29.93 1013 1 1 N/A
5:30 am 05:30 Mostly Cloudy with Fog 61 16.1 61 16.1 100 100 N N/A 29.93 1013 0 0 N/A
5:53 am 05:53 Mostly Cloudy with Fog 61 16.1 61 16.1 100 100 N N/A 29.93 1014 0 0 N/A
6:53 am 06:53 Mostly Cloudy with Fog 61 16.1 60 15.6 97 97 N N/A 29.95 1014 0 0 N/A
7:18 am 07:18 Cloudy with Mist and Fog 61 16.1 60 15.6 97 97 N N/A 29.97 1015 1 2 N/A
7:37 am 07:37 Cloudy with Mist and Fog 61 16.1 61 16.1 100 100 N N/A 29.97 1015 3 4 N/A
7:46 am 07:46 Mostly Cloudy with Mist and Fog 62 16.7 61 16.1 96 96 N N/A 29.97 1015 3 5 N/A
7:53 am 07:53 Mostly Cloudy with Mist and Fog 62 16.7 61 16.1 96 96 N N/A 29.97 1015 4 6 N/A
8:18 am 08:18 Partly Cloudy with Mist and Fog 64 17.8 63 17.2 96 96 N N/A 29.97 1015 5 8 N/A
8:53 am 08:53 Sunny 68 20 64 17.8 87 87 N N/A 29.97 1015 10 16 N/A
9:53 am 09:53 Sunny 75 23.9 66 18.9 74 74 SSW 5 7 29.97 1015 10 16 N/A
10:53 am 10:53 Sunny 81 27.2 67 19.4 62 62 VRB 5 7 29.96 1015 10 16 N/A
11:53 am 11:53 Mostly Sunny 84 28.9 65 18.3 53 53 WSW 12 19 29.94 1014 10 16 N/A
12:53 pm 12:53 Mostly Sunny 85 29.4 65 18.3 51 51 WSW 18 30 29.92 1013 10 16 N/A
1:53 pm 13:53 Mostly Sunny 87 30.6 66 18.9 50 50 S 14 22 29.90 1013 10 16 N/A
2:53 pm 14:53 Mostly Sunny 87 30.6 63 17.2 45 45 SSW 18 30 29.89 1012 10 16 N/A
3:53 pm 15:53 Partly Cloudy 86 30 64 17.8 48 48 S 15 24 29.87 1011 10 16 N/A
4:53 pm 16:53 Mostly Sunny 87 30.6 62 16.7 43 43 SSW 16 26 29.86 1011 10 16 N/A
5:53 pm 17:53 Mostly Sunny 86 30 63 17.2 46 46 SSW 9 15 29.87 1011 10 16 N/A
6:53 pm 18:53 Partly Cloudy 84 28.9 63 17.2 49 49 SSW 9 15 29.86 1011 10 16 N/A
7:53 pm 19:53 Mostly Sunny 79 26.1 66 18.9 65 65 S 6 9 29.86 1011 10 16 N/A
8:53 pm 20:53 Clear 73 22.8 68 20 84 84 S 3 6 29.85 1011 10 16 N/A
9:53 pm 21:53 Clear 71 21.7 67 19.4 87 87 SSW 3 6 29.86 1011 10 16 N/A
10:53 pm 22:53 Clear 68 20 66 18.9 93 93 SSW 3 6 29.87 1012 10 16 N/A
11:53 pm 23:53 Clear 70 21.1 65 18.3 84 84 N N/A 29.88 1012 10 16 N/A

Powered by AerisWeather